sat.trackr.live / text

‹ back to catalog

STARLINK-2648

NORAD 48679 · 2021-044AT

PAYLOAD ACTIVE UNKNOWN

§ Identity

Operator
Country
US
Launch date
2021-05-26
Launch site
AFETR
Launch vehicle
Mass (kg)
RCS (m²)

Purposes: comms

External: N2YO · Heavens-Above · Gunter

§ Orbital elements

Epoch: 2026-09-19T14:17:03.188256Z

Period
94.01 min
Inclination
53.1586°
Eccentricity
0.0001616
Mean motion
15.31704671 rev/d
Perigee alt
469.6 km
Apogee alt
471.8 km
Semi-major
6,848.9 km
B*
5.1717e-5
RAAN
293.0280°
Arg perigee
57.6421°
Mean anomaly
302.4737°
Rev number
29,350

§ Raw data

STARLINK-26481 48679U 21044AT  26262.59517579  .00001240  00000+0  51717-4 0  99922 48679  53.1586 293.0280 0001616  57.6421 302.4737 15.31704671293507

JSON: /api/v1/satellites/48679 · /tle

For live sub-satellite position, see the globe view (requires WebGL).

§ Visibility from observer

Set your observer location to see the next 7 days of passes ≥ 10°. The values pass through the URL so the page stays shareable.

No JS? Fill the form by hand. The geolocation button needs JavaScript.